Regional Weather Roundup
Issued by NWS

Home | Current Version | Previous Version | Graphics & Text | Print | Product List | Glossary On
Versions: 1 2 3 4 5 6 7 8 9 10 11 12 13 14 15 16 17 18 19 20 21 22 23 24 25 26 27 28 29 30 31 32 33 34 35 36 37 38 39 40 41 42 43 44 45 46 47 48 49 50
000
ASUS43 KTOP 300308
RWRKS

WEATHER ROUNDUP FOR KANSAS
NATIONAL WEATHER SERVICE GOODLAND KS
1000 PM CDT MON SEP 29 2014

NOTE:  "FAIR" INDICATES FEW OR NO CLOUDS BELOW 12,000 FEET WITH NO
SIGNIFICANT WEATHER AND/OR OBSTRUCTIONS TO VISIBILITY.

KSZ001>006-013>018-027>032-041>047-300400-
NORTHWEST KANSAS

CITY           SKY/WX    TMP DP  RH WIND       PRES   REMARKS
GOODLAND       LGT RAIN  57  55  93 SW14G23   29.91R
HAYS           PTCLDY    70  54  56 SE14      29.88F
HILL CITY      CLOUDY    73  53  49 SE16G23   29.85F
RUSSELL        PTCLDY    71  55  56 SE14      29.88R
$$

KSZ061>065-074>080-084>089-300400-
SOUTHWEST KANSAS

CITY           SKY/WX    TMP DP  RH WIND       PRES   REMARKS
DODGE CITY     CLOUDY    72  52  49 S18       29.90R
ELKHART          N/A     61  56  84 S9          N/A
GARDEN CITY    CLOUDY    72  52  49 S17G25    29.89R
GREAT BEND     PTCLDY    70  54  56 SE12      29.89F
LIBERAL        CLOUDY    73  52  46 S12       29.94R
PRATT          MOCLDY    72  52  49 S12       29.92F
$$

KSZ066>073-081>083-090>101-300400-
SOUTHEAST KANSAS

CITY           SKY/WX    TMP DP  RH WIND       PRES   REMARKS
CHANUTE        CLEAR     65  61  87 SE6       29.95S
COFFEYVILLE    CLEAR     67  60  78 CALM      29.94S
HUTCHINSON     CLEAR     70  56  61 SE9       29.93R
MEDICINE LODGE   N/A     74  55  51 SE9       29.91R
NEWTON         CLEAR     70  55  60 SE9       29.96R
PARSONS        CLEAR     65  61  87 CALM      29.96S
WICHITA INTL   PTCLDY    74  58  57 SE13      29.93R
WICHITA JABRA  CLEAR     70  57  63 SE8       29.94R
WICHITA MCCONL CLEAR     73  58  60 SE10      29.94R
WINFIELD       CLEAR     71  60  68 SE8       29.94S
$$

KSZ007>012-019>026-033>040-048>060-102>105-300400-
NORTHEAST KANSAS

CITY           SKY/WX    TMP DP  RH WIND       PRES   REMARKS
CONCORDIA      CLEAR     67  59  75 SE9       29.91R
EMPORIA        CLEAR     67  60  78 SE8       29.94S
LAWRENCE       PTCLDY    64  59  83 SE3       29.94F
MANHATTAN      CLEAR     68  59  73 S5        29.92S
MARYSVILLE     CLEAR     68  59  73 SE8       29.93R
OLATHE IND     CLEAR     71  59  65 SE7       29.96S
OLATHE EXE     CLEAR     70  59  68 SE5       29.96S
SALINA         CLEAR     70  57  63 SE8       29.90S
TOPEKA BILLARD CLEAR     69  62  78 CALM      29.94S
TOPEKA FORBES  MOCLDY    67  60  78 SE6       29.94S
$$



USA.gov is the U.S. government's official web portal to all federal, state and local government web resources and services.